Hourly Data Report for October 04, 2015

All times are specified in Local Standard Time (LST). Add 1 hour to adjust for Daylight Saving Time where and when it is observed.

CHARLOTTETOWN A
PRINCE EDWARD ISLAND

46°17'21.000" N
63°07'09.000" W
48.50 m
8300301
71706
YYG

Download Data

Hourly Data (October 2015)
Hourly Data Report for October 4, 2015
Temp Definition
°C
Dew Point Temp Definition
°C
Rel Hum Definition
%
Wind Dir Definition
10's deg

Wind Spd Definition
km/h
Visibility Definition
km
Stn Press Definition
kPa
Hmdx Definition


Wind Chill Definition


Weather Definition


TIME
00:00 Legend Double Dagger 5.8 1.9 76 36 9 24.1 102.63     LegendNANA
01:00 Legend Double Dagger 6.2 2.8 79 36 9 24.1 102.62     LegendNANA
02:00 Legend Double Dagger 6.0 2.7 79 33 8 24.1 102.61     Mainly Clear
03:00 Legend Double Dagger 5.7 2.0 77 36 9 24.1 102.57     LegendNANA
04:00 Legend Double Dagger 5.3 2.0 79 33 7 24.1 102.58     LegendNANA
05:00 Legend Double Dagger 5.5 3.5 87 34 8 24.1 102.58     Mainly Clear
06:00 Legend Double Dagger 5.2 3.7 90 34 8 24.1 102.54     LegendNANA
07:00 Legend Double Dagger 6.1 4.3 88 32 7 24.1 102.56     LegendNANA
08:00 Legend Double Dagger 10.3 6.5 77 34 6 24.1 102.62     Mainly Clear
09:00 Legend Double Dagger 11.9 7.1 72 1 18 24.1 102.65     LegendNANA
10:00 Legend Double Dagger 13.0 7.3 68 1 22 24.1 102.64     LegendNANA
11:00 Legend Double Dagger 13.4 5.9 60 1 24 24.1 102.59     Mostly Cloudy
12:00 Legend Double Dagger 13.6 6.0 60 1 26 24.1 102.56     LegendNANA
13:00 Legend Double Dagger 13.4 7.0 65 1 23 24.1 102.46     LegendNANA
14:00 Legend Double Dagger 13.5 6.9 64 4 22 24.1 102.40     Mostly Cloudy
15:00 Legend Double Dagger 13.2 6.8 65 1 23 24.1 102.39     LegendNANA
16:00 Legend Double Dagger 12.8 6.9 67 3 19 24.1 102.35     LegendNANA
17:00 Legend Double Dagger 10.7 6.1 73 2 16 24.1 102.33     Mostly Cloudy
18:00 Legend Double Dagger 8.7 5.6 81 1 9 24.1 102.34     LegendNANA
19:00 Legend Double Dagger 7.9 5.6 85 35 5 24.1 102.33     LegendNANA
20:00 Legend Double Dagger 7.2 5.0 86 35 3 24.1 102.31     Mostly Cloudy
21:00 Legend Double Dagger 5.7 5.1 96 36 4 24.1 102.31     LegendNANA
22:00 Legend Double Dagger 5.1 4.7 97 5 3 24.1 102.25     LegendNANA
23:00 Legend Double Dagger 3.9 3.6 98 9 3 24.1 102.19     Mostly Cloudy

Notes on Data Quality.

Legend

  • E = Estimated
  • M = Missing
  • NA = Not Available
  • ‡ = Partner data that is not subject to review by the National Climate Archives
Date modified: